THORAD AGENA D DEB, 42546

Orbit data source: Space-Track

THORAD AGENA D DEB, 42546 is space debris in SSO originally from a launch on Wed, 08 Apr 1970 UTC launched from the Air Force Western Test Range (AFWTR). Debris objects in space refer to the collection of defunct objects orbiting the Earth. Examples of debris include non-operational satellites, rocket bodies, and fragments generated from explosions, collisions, or faulty payload assembly.

Loading next visibility...
Identifier
42546, 1970-025TC
Orbit
SSO
Country
Flag of USUS
Related business
Manufacturer
Unknown
Mission
Spacecraft
Bus & Motor
Unknown
Mass
Unknown
Launch date (UTC)
1970-04-08 (56 years ago)
Launch vehicle
Unknown
Launch site
Air Force Western Test Range (AFWTR)
Object type
Payload
Rocket body
Debris
Shape & HBR
Unknown shape, 0.1 m
Radar Cross Section
Small (<0.1 m²)

Expand to show TLE details & history
Last TLE update: 1 week ago

TLE from 1 week ago
0 THORAD AGENA D DEB
1 42546U 70025TC  26027.36977248  .00001158  00000-0  14851-2 0  9994
2 42546 100.1222 238.6518 0054814 291.9125  67.6194 13.64635054605398
Epoch: 2026-01-27T08:52Z
TLE epoch observation values (Epoch: 2026-01-27T08:52:28.342Z)
Latitude
-0.00004°
Longitude
-21.11844°
Altitude
1,006.435 km
Speed
7.356 km/s
True Right ascension
15h 54m 36s
True Declination
0° 00' 00"
Sunlit
Object was in daylight at epoch
Visualization orbit readout
Latitude
Unknown
Longitude
Unknown
Altitude
Unknown
Speed
Unknown
Apparent Right ascension
Unknown
Apparent Declination
Unknown
Sunlit
N/A
Visualization observer readout
Local Sidereal Time
13:16:38
Azimuth
Unknown
Elevation
Unknown
Doppler factor
Unknown
Orbital elements
Apogee altitude
1,056.73 km
Perigee altitude
975.668 km
Semi-major axis
7,394.336 km
Eccentricity
0.00548
Inclination
100.1222°
RAAN
238.6518°
Arg. of periapsis
291.9125°
True anomaly
68.20172°
Mean anomaly
67.6194°
Eccentric anomaly
67.91041°
Mean motion
3.41346 °/min
Orbital period
105.46 mins
BSTAR
0.0014851
Loading maneuver chart data...
Computing Atmospheric mass density...

Documentation

Showing up to 5 results
|